HAWK-5A

Last updated on Sun Jun 21 2026 00:03:43 GMT+0000 (Coordinated Universal Time)

1 52757U 22057AB 26171.39767378 .00016061 00000+0 27329-3 0 9998 2 52757 97.6616 330.4524 0005380 69.2298 290.9529 15.51490262226849
UTC large
Height (km)
Speed (km/s)
/
Latitude / Longitude
Inclination (degrees)
Orbital Period (minutes)
Azimuth
Elevation
Range (km)
Doppler Factor

Next 0 passes for location: London (51.5072 / 0.1276)

No passes found over London.
HAWK-5A